Sarasota, FL

12:39 AM EDT on June 25, 2018 (GMT -0400)
Sarasota-bradenton

Weather History for KSRQ - November, 2017

Change the Weather History Date:

Tuesday, November 14, 2017

  Actual Average Record
Temperature  
Mean Temperature 73 °F 70 °F  
Max Temperature 82 °F 79 °F 89 °F (1964)
Min Temperature 64 °F 60 °F 36 °F (1968)
Degree Days  
Heating Degree Days 0 1  
Month to date heating degree days 0 4  
Since 1 July heating degree days 13 7  
Cooling Degree Days 8 5  
Month to date cooling degree days 115 88  
Year to date cooling degree days 3634 3232  
Growing Degree Days 22 (Base 50)    
Moisture  
Dew Point 63 °F    
Average Humidity 75    
Maximum Humidity 93    
Minimum Humidity 58    
Precipitation  
Precipitation 0.00 in 0.05 in 4.80 in (1997)
Month to date precipitation 0.04 0.96  
Year to date precipitation 63.98 49.51  
Sea Level Pressure  
Sea Level Pressure 30.00 in    
Wind  
Wind Speed 11 mph (NE)    
Max Wind Speed 20 mph    
Max Gust Speed 27 mph    
Visibility 10 miles    
Events      
T = Trace of Precipitation, MM = Missing Value Source: NWS Daily Summary

Daily Weather History Graph

Daily Weather History Graph

Search for Another Location

Airport or City:

Astronomy

Nov. 14, 2017 Rise Set
Actual Time 6:50 AM EST 5:38 PM EST
Civil Twilight 6:25 AM EST 6:03 PM EST
Nautical Twilight 5:57 AM EST 6:31 PM EST
Astronomical Twilight 5:29 AM EST 6:59 PM EST
Moon 3:15 AM EST (11/14) 3:39 PM EST (11/14)
Length of Visible Light 11h 37m
Length of Day
10h 48m
Waning Crescent, 14% of the Moon is Illuminated
Nov 14
Waning Crescent
Nov 18
New
Nov 26
First Quarter
Dec 3
Full
Dec 10
Last Quarter

Hourly Weather History & Observations

Time (EST) Temp. Heat Index Dew Point Humidity Pressure Visibility Wind Dir Wind Speed Gust Speed Precip Events Conditions
12:53 AM 66.9 °F - 63.0 °F 87% 30.04 in 10.0 mi NE 10.4 mph - N/A   Clear
1:53 AM 66.0 °F - 63.0 °F 90% 30.04 in 10.0 mi NE 10.4 mph - N/A   Clear
2:53 AM 66.0 °F - 63.0 °F 90% 30.03 in 10.0 mi NE 9.2 mph - N/A   Clear
3:53 AM 66.0 °F - 63.0 °F 90% 30.02 in 10.0 mi NE 10.4 mph 18.4 mph N/A   Clear
4:53 AM 66.0 °F - 63.0 °F 90% 30.03 in 10.0 mi NE 9.2 mph - N/A   Clear
5:53 AM 64.9 °F - 63.0 °F 93% 30.03 in 10.0 mi NE 10.4 mph - N/A   Clear
6:53 AM 64.9 °F - 63.0 °F 93% 30.05 in 10.0 mi NE 10.4 mph - N/A   Partly Cloudy
7:53 AM 66.9 °F - 62.1 °F 84% 30.06 in 10.0 mi NE 12.7 mph 20.7 mph N/A   Clear
8:53 AM 70.0 °F - 63.0 °F 78% 30.06 in 10.0 mi NE 12.7 mph - N/A   Clear
9:53 AM 73.9 °F - 64.0 °F 71% 30.06 in 10.0 mi NNE 12.7 mph - N/A   Clear
10:53 AM 77.0 °F - 64.9 °F 66% 30.04 in 10.0 mi NE 11.5 mph - N/A   Clear
11:53 AM 79.0 °F - 64.9 °F 62% 30.01 in 10.0 mi ENE 15.0 mph - N/A   Clear
12:53 PM 80.1 °F 81.7 °F 64.0 °F 58% 29.98 in 10.0 mi NE 9.2 mph - N/A   Partly Cloudy
1:53 PM 81.0 °F 82.5 °F 64.0 °F 56% 29.96 in 10.0 mi NE 8.1 mph - N/A   Scattered Clouds
2:53 PM 81.0 °F 82.5 °F 64.0 °F 56% 29.93 in 10.0 mi NE 9.2 mph - N/A   Partly Cloudy
3:53 PM 80.1 °F 81.7 °F 64.0 °F 58% 29.92 in 10.0 mi NNW 9.2 mph - N/A   Partly Cloudy
4:53 PM 79.0 °F - 62.1 °F 56% 29.92 in 10.0 mi North 10.4 mph - N/A   Mostly Cloudy
5:53 PM 75.9 °F - 62.1 °F 62% 29.94 in 9.0 mi North 8.1 mph - N/A   Clear
6:53 PM 73.0 °F - 63.0 °F 71% 29.96 in 10.0 mi ENE 13.8 mph 21.9 mph N/A   Mostly Cloudy
7:53 PM 70.0 °F - 62.1 °F 76% 29.99 in 10.0 mi NE 12.7 mph 20.7 mph N/A   Clear
8:53 PM 68.0 °F - 61.0 °F 78% 30.00 in 10.0 mi NE 13.8 mph - N/A   Clear
9:53 PM 66.9 °F - 60.1 °F 79% 30.00 in 10.0 mi NE 12.7 mph 19.6 mph N/A   Clear
10:53 PM 66.0 °F - 60.1 °F 81% 30.00 in 10.0 mi NE 8.1 mph - N/A   Clear
11:53 PM 64.0 °F - 59.0 °F 84% 29.99 in 10.0 mi NE 6.9 mph - N/A   Clear